Location: Crescent
(42.8242°N, 73.7329°W)
Time: 20:39:40
(UTC+00:00)

SR - Pass Details

Date: 24 February 2026
Orbit: 573 x 848 km, 66.7° (Epoch: 6 March)

Event Time Altitude Azimuth Distance (km) Brightness Sun altitude
Rises 15:57:29 0° 333° (NNW) 3,092 ? 35.5°
Reaches altitude 10° 15:59:51 10° 340° (NNW) 2,215 ? 35.6°
Maximum altitude 16:04:44 46° 54° (NE) 1,019 ? 35.9°
Drops below altitude 10° 16:09:58 10° 127° (SE) 2,369 ? 36.2°
Sets 16:12:34 0° 133° (SE) 3,330 ? 36.4°
